Tracking 19795 objects as of 17-Jul-2019
HD Live streaming from Space Station
objects crossing your sky now

FENGYUN 1C DEB

Track FENGYUN 1C DEB now!
10-day predictions


NORAD ID: 30661
Int'l Code: 1999-025APT
Perigee: 728.3 km
Apogee: 941.5 km
Inclination: 99.5 °
Period: 101.5 minutes
Semi major axis: 7205 km
RCS: 0.0103 m2 (small)
Launch date: May 10, 1999
Source: People's Republic of China (PRC)
Launch site: Taiyaun Space Center, China (TSC)

Note: This is SATELLITE DEBRIS
aabbcc
Your satellite tracking list
Your tracking list is empty




NASA's NSSDC Master Catalog

Two Line Element Set (TLE):
1 30661U 99025APT 19198.47171921  .00000007  00000-0  24203-4 0  9993
2 30661  99.4832 185.6681 0147945 156.5315 204.2702 14.19297606647159
Source of the keplerian elements: AFSPC